Location: Unspecified
(0.0000°N, 0.0000°E)
Time: 06:09:54
(UTC+00:00)

ITAMSAT 1 - Visible Passes

Search period start: 10 July 2020 00:00
Search period end: 20 July 2020 00:00
Orbit: 784 x 796 km, 98.9° (Epoch: 09 July)

Date Brightness Start Highest point End Pass type
(mag) Time Alt. Az. Time Alt. Az. Time Alt. Az.
10 Jul 10.3 04:42:11 10° ENE 04:45:21 16° ESE 04:48:31 10° SE visible
10 Jul 10.6 18:57:56 10° WSW 18:59:24 11° WSW 19:00:53 10° W visible
11 Jul 9.9 18:25:47 10° SSW 18:30:04 26° WSW 18:34:20 10° NW visible
12 Jul 8.6 05:20:45 10° NNE 05:25:46 50° ESE 05:30:48 10° S visible
13 Jul 10.0 04:52:27 10° NE 04:56:24 22° ESE 05:00:21 10° SSE visible
14 Jul 10.3 18:37:26 10° SSW 18:41:07 20° WSW 18:44:48 10° WNW visible
15 Jul 8.1 05:31:40 10° NNE 05:36:51 68° ESE 05:42:01 10° S visible
16 Jul 9.6 05:03:00 10° NE 05:07:28 29° ESE 05:11:56 10° SSE visible
17 Jul 10.5 04:35:56 10° ENE 04:38:08 13° ESE 04:40:20 10° SE visible
17 Jul 10.4 18:49:24 10° SW 18:52:11 15° WSW 18:54:58 10° WNW visible
19 Jul 9.1 05:13:43 10° NE 05:18:32 39° ESE 05:23:21 10° S visible
